,,,PA_Meas_PMT16A,,PR_Meas_QMR101_102,,RH_Meas_QMH101,,SR_Meas_QMS101,,TA_Meas_QMH101,,GenWind,,GenWind,
date,time,status,PA,status,PR,status,RH,status,SR,status,TA,status,DirAvg,status,SpdAvg,
2012-07-04, 00:00:05,VALID,997.781,VALID,0,VALID,61.4184,VALID,0.104696,VALID,26.3345,VALID,193,VALID,2.32852,
2012-07-04, 00:01:05,VALID,997.786,VALID,0,VALID,61.5024,VALID,0,VALID,26.315,VALID,187,VALID,1.70313,
2012-07-04, 00:02:05,VALID,997.732,VALID,0,VALID,61.4718,VALID,0,VALID,26.2564,VALID,189,VALID,1.40703,
2012-07-04, 00:03:05,VALID,997.683,VALID,0,VALID,61.2277,VALID,0.104696,VALID,26.2954,VALID,199,VALID,3.48047,
2012-07-04, 00:04:05,VALID,997.686,VALID,0,VALID,61.2124,VALID,0,VALID,26.2954,VALID,201,VALID,1.72852,
2012-07-04, 00:05:05,VALID,997.673,VALID,0,VALID,61.2353,VALID,0,VALID,26.3365,VALID,213,VALID,1.79766,
2012-07-04, 00:06:05,VALID,997.654,VALID,0,VALID,61.037,VALID,0,VALID,26.356,VALID,202,VALID,2.66445,
2012-07-04, 00:07:05,VALID,997.638,VALID,0,VALID,61.2277,VALID,0,VALID,26.354,VALID,214,VALID,1.95781,
2012-07-04, 00:08:05,VALID,997.635,VALID,0,VALID,61.449,VALID,0.104696,VALID,26.2759,VALID,226,VALID,1.56953,
2012-07-04, 00:09:05,VALID,997.63,VALID,0,VALID,61.5329,VALID,0,VALID,26.2759,VALID,232,VALID,1.70859,
2012-07-04, 00:10:05,VALID,997.632,VALID,0,VALID,61.4718,VALID,0,VALID,26.2739,VALID,209,VALID,0.741016,
2012-07-04, 00:11:05,VALID,997.614,VALID,0,VALID,61.716,VALID,0,VALID,26.2564,VALID,235,VALID,1.13359,
2012-07-04, 00:12:05,VALID,997.58,VALID,0,VALID,61.5634,VALID,0.104696,VALID,26.2369,VALID,206,VALID,1.62617,
2012-07-04, 00:13:05,VALID,997.595,VALID,0,VALID,61.5787,VALID,0,VALID,26.2369,VALID,221,VALID,2.57617,
2012-07-04, 00:14:05,VALID,997.609,VALID,0,VALID,61.7465,VALID,0,VALID,26.2369,VALID,203,VALID,2.98594,
2012-07-04, 00:15:05,VALID,997.585,VALID,0,VALID,61.983,VALID,0,VALID,26.2173,VALID,231,VALID,1.47187,
2012-07-04, 00:16:05,VALID,997.606,VALID,0,VALID,61.9601,VALID,0,VALID,26.2173,VALID,204,VALID,2.39805,
2012-07-04, 00:17:05,VALID,997.578,VALID,0,VALID,61.8381,VALID,0,VALID,26.2369,VALID,212,VALID,1.67422,
2012-07-04, 00:18:05,VALID,997.57,VALID,0,VALID,61.8533,VALID,0,VALID,26.2369,VALID,216,VALID,1.50859,
2012-07-04, 00:19:05,VALID,997.584,VALID,0,VALID,61.7618,VALID,0,VALID,26.2369,VALID,219,VALID,2.62852,
2012-07-04, 00:20:05,VALID,997.586,VALID,0,VALID,62.0136,VALID,0,VALID,26.2389,VALID,211,VALID,1.61758,
2012-07-04, 00:21:05,VALID,997.544,VALID,0,VALID,61.6855,VALID,0,VALID,26.2584,VALID,200,VALID,2.81211,
2012-07-04, 00:22:04,VALID,997.537,VALID,0,VALID,61.6397,VALID,0,VALID,26.2974,VALID,220,VALID,2.18828,
2012-07-04, 00:23:04,VALID,997.543,VALID,0,VALID,61.8381,VALID,0,VALID,26.2584,VALID,216,VALID,2.48008,
2012-07-04, 00:24:04,VALID,997.498,VALID,0,VALID,61.8076,VALID,0,VALID,26.2584,VALID,197,VALID,2.2207,
2012-07-04, 00:25:04,VALID,997.499,VALID,0,VALID,61.8076,VALID,0,VALID,26.2779,VALID,202,VALID,2.63789,
2012-07-04, 00:26:04,VALID,997.477,VALID,0,VALID,62.0364,VALID,0,VALID,26.2369,VALID,220,VALID,2.03828,
2012-07-04, 00:27:04,VALID,997.463,VALID,0,VALID,62.1051,VALID,0,VALID,26.2389,VALID,228,VALID,2.45898,
2012-07-04, 00:28:04,VALID,997.504,VALID,0,VALID,62.1051,VALID,0,VALID,26.2389,VALID,210,VALID,2.41523,
2012-07-04, 00:29:04,VALID,997.474,VALID,0,VALID,61.9296,VALID,0,VALID,26.2389,VALID,198,VALID,2.05547,
2012-07-04, 00:30:04,VALID,997.412,VALID,0,VALID,61.716,VALID,0,VALID,26.2779,VALID,229,VALID,2.87734,
2012-07-04, 00:31:04,VALID,997.419,VALID,0,VALID,61.7923,VALID,0,VALID,26.317,VALID,202,VALID,2.41953,
2012-07-04, 00:32:04,VALID,997.432,VALID,0,VALID,61.7236,VALID,0,VALID,26.2974,VALID,204,VALID,2.25,
2012-07-04, 00:33:04,VALID,997.415,VALID,0,VALID,61.7923,VALID,0,VALID,26.2779,VALID,211,VALID,3.15234,
2012-07-04, 00:34:04,VALID,997.457,VALID,0,VALID,61.9373,VALID,0,VALID,26.317,VALID,218,VALID,2.12422,
2012-07-04, 00:35:04,VALID,997.432,VALID,0,VALID,61.9449,VALID,0,VALID,26.2954,VALID,216,VALID,2.46289,
2012-07-04, 00:36:04,VALID,997.452,VALID,0,VALID,62.1051,VALID,0,VALID,26.2759,VALID,207,VALID,2.05898,
2012-07-04, 00:37:04,VALID,997.386,VALID,0,VALID,61.8839,VALID,0,VALID,26.2739,VALID,208,VALID,2.1875,
2012-07-04, 00:38:04,VALID,997.427,VALID,0,VALID,61.7999,VALID,0.104696,VALID,26.2544,VALID,211,VALID,2.38203,
2012-07-04, 00:39:04,VALID,997.451,VALID,0,VALID,61.5481,VALID,0,VALID,26.3325,VALID,199,VALID,2.05117,
2012-07-04, 00:40:04,VALID,997.406,VALID,0,VALID,61.449,VALID,0,VALID,26.3736,VALID,215,VALID,3.03125,
2012-07-04, 00:41:04,VALID,997.428,VALID,0,VALID,61.4871,VALID,0,VALID,26.352,VALID,208,VALID,2.39375,
2012-07-04, 00:42:04,VALID,997.425,VALID,0,VALID,61.4184,VALID,0,VALID,26.3715,VALID,227,VALID,1.83438,
2012-07-04, 00:43:04,VALID,997.386,VALID,0,VALID,61.7236,VALID,0,VALID,26.354,VALID,225,VALID,1.70664,
2012-07-04, 00:44:04,VALID,997.37,VALID,0,VALID,61.5634,VALID,0,VALID,26.313,VALID,204,VALID,2.72148,
2012-07-04, 00:45:04,VALID,997.437,VALID,0,VALID,61.7084,VALID,0,VALID,26.354,VALID,205,VALID,2.32852,
2012-07-04, 00:46:04,VALID,997.433,VALID,0,VALID,61.7236,VALID,0,VALID,26.354,VALID,212,VALID,2.0082,
2012-07-04, 00:47:04,VALID,997.443,VALID,0,VALID,61.7084,VALID,0,VALID,26.3345,VALID,211,VALID,1.9543,
2012-07-04, 00:48:04,VALID,997.446,VALID,0,VALID,61.7618,VALID,0,VALID,26.315,VALID,219,VALID,1.89219,
2012-07-04, 00:49:04,VALID,997.459,VALID,0,VALID,61.7389,VALID,0,VALID,26.2954,VALID,200,VALID,2.02656,
2012-07-04, 00:50:04,VALID,997.466,VALID,0,VALID,61.7694,VALID,0,VALID,26.2369,VALID,196,VALID,1.67578,
2012-07-04, 00:51:04,VALID,997.511,VALID,0,VALID,62.0746,VALID,0,VALID,26.2759,VALID,202,VALID,1.83008,
2012-07-04, 00:52:04,VALID,997.474,VALID,0,VALID,62.067,VALID,0.104696,VALID,26.1978,VALID,200,VALID,1.16367,
2012-07-04, 00:53:04,VALID,997.496,VALID,0,VALID,62.128,VALID,0,VALID,26.2173,VALID,218,VALID,1.24961,
2012-07-04, 00:54:04,VALID,997.48,VALID,0,VALID,62.1967,VALID,0,VALID,26.1978,VALID,211,VALID,1.49219,
2012-07-04, 00:55:04,VALID,997.488,VALID,0,VALID,62.1356,VALID,0,VALID,26.1978,VALID,198,VALID,2.72891,
2012-07-04, 00:56:04,VALID,997.419,VALID,0,VALID,62.0441,VALID,0,VALID,26.2759,VALID,208,VALID,3.33711,
2012-07-04, 00:57:04,VALID,997.429,VALID,0,VALID,61.7389,VALID,0,VALID,26.2759,VALID,198,VALID,2.69258,
2012-07-04, 00:58:04,VALID,997.413,VALID,0,VALID,61.7923,VALID,0.104696,VALID,26.2564,VALID,213,VALID,2.45508,
2012-07-04, 00:59:04,VALID,997.363,VALID,0,VALID,61.5787,VALID,0,VALID,26.2954,VALID,198,VALID,2.65234,
2012-07-04, 01:00:04,VALID,997.397,VALID,0,VALID,61.449,VALID,0,VALID,26.3345,VALID,211,VALID,2.11758,
2012-07-04, 01:01:04,VALID,997.39,VALID,0,VALID,61.6244,VALID,0,VALID,26.315,VALID,209,VALID,2.0707,
2012-07-04, 01:02:04,VALID,997.373,VALID,0,VALID,61.6397,VALID,0,VALID,26.2759,VALID,197,VALID,2.1582,
2012-07-04, 01:03:04,VALID,997.449,VALID,0,VALID,61.655,VALID,0,VALID,26.315,VALID,180,VALID,2.24492,
2012-07-04, 01:04:04,VALID,997.43,VALID,0,VALID,61.861,VALID,0.104696,VALID,26.2544,VALID,179,VALID,2.07695,
2012-07-04, 01:05:04,VALID,997.419,VALID,0,VALID,61.8152,VALID,0,VALID,26.2349,VALID,186,VALID,1.76719,
2012-07-04, 01:06:04,VALID,997.395,VALID,0,VALID,61.6473,VALID,0,VALID,26.2759,VALID,190,VALID,2.32344,
2012-07-04, 01:07:04,VALID,997.445,VALID,0,VALID,62.0288,VALID,0,VALID,26.2153,VALID,201,VALID,1.5168,
2012-07-04, 01:08:04,VALID,997.43,VALID,0,VALID,61.9296,VALID,0,VALID,26.2173,VALID,189,VALID,2.48047,
2012-07-04, 01:09:04,VALID,997.444,VALID,0,VALID,61.9601,VALID,0,VALID,26.2173,VALID,174,VALID,1.80781,
2012-07-04, 01:10:04,VALID,997.485,VALID,0,VALID,62.1509,VALID,0,VALID,26.1978,VALID,175,VALID,2.24883,
2012-07-04, 01:11:04,VALID,997.468,VALID,0,VALID,62.5095,VALID,0,VALID,26.0611,VALID,166,VALID,2.81094,
2012-07-04, 01:12:04,VALID,997.483,VALID,0,VALID,63.2038,VALID,0,VALID,25.9245,VALID,164,VALID,2.78906,
2012-07-04, 01:13:04,VALID,997.435,VALID,0,VALID,63.8141,VALID,0,VALID,25.7683,VALID,160,VALID,2.05547,
2012-07-04, 01:14:04,VALID,997.406,VALID,0,VALID,64.2719,VALID,0,VALID,25.6316,VALID,157,VALID,1.89727,
2012-07-04, 01:15:04,VALID,997.39,VALID,0,VALID,64.6992,VALID,0.104696,VALID,25.534,VALID,162,VALID,1.72734,
2012-07-04, 01:16:04,VALID,997.403,VALID,0,VALID,64.9586,VALID,0.104696,VALID,25.4345,VALID,166,VALID,1.61328,
2012-07-04, 01:17:04,VALID,997.413,VALID,0,VALID,66.0191,VALID,0,VALID,25.3583,VALID,138,VALID,1.0457,
2012-07-04, 01:18:04,VALID,997.428,VALID,0,VALID,67.2017,VALID,0.104696,VALID,25.1241,VALID,119,VALID,0.646484,
2012-07-04, 01:19:04,VALID,997.414,VALID,0,VALID,67.0567,VALID,0,VALID,24.9679,VALID,167,VALID,1.57187,
2012-07-04, 01:20:04,VALID,997.402,VALID,0,VALID,66.6371,VALID,0,VALID,25.0869,VALID,160,VALID,1.40234,
2012-07-04, 01:21:04,VALID,997.395,VALID,0,VALID,66.0954,VALID,0,VALID,25.1631,VALID,175,VALID,1.56289,
2012-07-04, 01:22:04,VALID,997.406,VALID,0,VALID,65.8894,VALID,0,VALID,25.2821,VALID,174,VALID,1.94883,
2012-07-04, 01:23:04,VALID,997.442,VALID,0,VALID,65.4545,VALID,0,VALID,25.3212,VALID,172,VALID,2.53477,
2012-07-04, 01:24:04,VALID,997.432,VALID,0,VALID,64.6839,VALID,0,VALID,25.5164,VALID,188,VALID,2.52266,
2012-07-04, 01:25:04,VALID,997.449,VALID,0,VALID,63.8752,VALID,0,VALID,25.7116,VALID,181,VALID,2.5043,
2012-07-04, 01:26:04,VALID,997.459,VALID,0,VALID,63.1046,VALID,0,VALID,25.9049,VALID,188,VALID,2.84805,
2012-07-04, 01:27:04,VALID,997.426,VALID,0,VALID,62.3721,VALID,0,VALID,26.0611,VALID,182,VALID,2.63203,
2012-07-04, 01:28:04,VALID,997.431,VALID,0,VALID,61.8686,VALID,0,VALID,26.1392,VALID,197,VALID,2.77109,
2012-07-04, 01:29:04,VALID,997.438,VALID,0,VALID,61.365,VALID,0,VALID,26.2369,VALID,181,VALID,3.1707,
2012-07-04, 01:30:04,VALID,997.418,VALID,0,VALID,60.9378,VALID,0,VALID,26.3365,VALID,187,VALID,2.91641,
2012-07-04, 01:31:04,VALID,997.386,VALID,0,VALID,60.9225,VALID,0,VALID,26.3736,VALID,195,VALID,2.5125,
2012-07-04, 01:32:04,VALID,997.411,VALID,0,VALID,60.5258,VALID,0,VALID,26.4341,VALID,201,VALID,3.1668,
2012-07-04, 01:33:04,VALID,997.398,VALID,0,VALID,60.4266,VALID,0,VALID,26.4537,VALID,217,VALID,2.92891,
2012-07-04, 01:34:04,VALID,997.421,VALID,0,VALID,60.3884,VALID,0,VALID,26.4927,VALID,199,VALID,3.32344,
2012-07-04, 01:35:04,VALID,997.404,VALID,0,VALID,60.3503,VALID,0,VALID,26.5123,VALID,201,VALID,2.99961,
2012-07-04, 01:36:04,VALID,997.407,VALID,0,VALID,60.3045,VALID,0,VALID,26.4927,VALID,186,VALID,2.38242,
2012-07-04, 01:37:04,VALID,997.389,VALID,0,VALID,60.2435,VALID,0,VALID,26.4907,VALID,209,VALID,2.61367,
2012-07-04, 01:38:04,VALID,997.359,VALID,0,VALID,59.8315,VALID,0,VALID,26.5493,VALID,200,VALID,2.8207,
2012-07-04, 01:39:04,VALID,997.343,VALID,0,VALID,60.0451,VALID,0,VALID,26.5493,VALID,192,VALID,2.77148,
2012-07-04, 01:40:04,VALID,997.319,VALID,0,VALID,60.0527,VALID,0,VALID,26.5513,VALID,192,VALID,2.15703,
2012-07-04, 01:41:04,VALID,997.327,VALID,0,VALID,60.213,VALID,0,VALID,26.5318,VALID,186,VALID,2.275,
2012-07-04, 01:42:04,VALID,997.274,VALID,0,VALID,60.2893,VALID,0,VALID,26.4927,VALID,194,VALID,2.075,
2012-07-04, 01:43:04,VALID,997.251,VALID,0,VALID,60.2435,VALID,0,VALID,26.4732,VALID,199,VALID,2.74141,
2012-07-04, 01:44:04,VALID,997.242,VALID,0,VALID,60.1824,VALID,0,VALID,26.4712,VALID,203,VALID,2.76523,
2012-07-04, 01:45:04,VALID,997.223,VALID,0,VALID,59.923,VALID,0,VALID,26.5123,VALID,196,VALID,3.13164,
2012-07-04, 01:46:04,VALID,997.232,VALID,0,VALID,59.8773,VALID,0,VALID,26.5318,VALID,177,VALID,3.62031,
2012-07-04, 01:47:04,VALID,997.237,VALID,0,VALID,60.1519,VALID,0,VALID,26.5123,VALID,170,VALID,3.13477,
2012-07-04, 01:48:04,VALID,997.257,VALID,0,VALID,62.2958,VALID,0,VALID,26.1978,VALID,132,VALID,2.78672,
2012-07-04, 01:49:04,VALID,997.189,VALID,0,VALID,65.218,VALID,0,VALID,25.5945,VALID,124,VALID,1.86289,
2012-07-04, 01:50:04,VALID,997.189,VALID,0,VALID,67.3848,VALID,0,VALID,25.0069,VALID,116,VALID,2.12891,
2012-07-04, 01:51:04,VALID,997.202,VALID,0,VALID,69.1625,VALID,0,VALID,24.5989,VALID,122,VALID,1.83984,
2012-07-04, 01:52:04,VALID,997.195,VALID,0,VALID,70.3069,VALID,0,VALID,24.2848,VALID,126,VALID,1.76367,
2012-07-04, 01:53:04,VALID,997.195,VALID,0,VALID,71.4514,VALID,0,VALID,24.0311,VALID,126,VALID,1.62695,
2012-07-04, 01:54:04,VALID,997.179,VALID,0,VALID,72.4127,VALID,0,VALID,23.8183,VALID,108,VALID,2.14805,
2012-07-04, 01:55:04,VALID,997.179,VALID,0,VALID,73.4809,VALID,0,VALID,23.5628,VALID,115,VALID,1.92695,
2012-07-04, 01:56:04,VALID,997.174,VALID,0,VALID,74.2667,VALID,0,VALID,23.3695,VALID,116,VALID,1.87617,
2012-07-04, 01:57:04,VALID,997.161,VALID,0,VALID,74.8008,VALID,0,VALID,23.2915,VALID,113,VALID,1.2457,
2012-07-04, 01:58:04,VALID,997.156,VALID,0,VALID,75.1289,VALID,0,VALID,23.1744,VALID,116,VALID,1.47461,
2012-07-04, 01:59:04,VALID,997.193,VALID,0,VALID,75.4646,VALID,0,VALID,23.0964,VALID,120,VALID,0.980469,
2012-07-04, 02:00:04,VALID,997.187,VALID,0,VALID,75.724,VALID,0,VALID,22.9971,VALID,122,VALID,0.558594,
2012-07-04, 02:01:04,VALID,997.167,VALID,0,VALID,76.0749,VALID,0,VALID,22.9403,VALID,122,VALID,0.420703,
2012-07-04, 02:02:04,VALID,997.184,VALID,0,VALID,76.2962,VALID,0,VALID,22.8995,VALID,122,VALID,0.166406,
2012-07-04, 02:03:04,VALID,997.186,VALID,0,VALID,76.5175,VALID,0,VALID,22.8818,VALID,122,VALID,0,
2012-07-04, 02:04:04,VALID,997.217,VALID,0,VALID,76.7692,VALID,0,VALID,22.8623,VALID,118,VALID,0.426562,
2012-07-04, 02:05:04,VALID,997.203,VALID,0,VALID,76.9371,VALID,0,VALID,22.8232,VALID,118,VALID,0.28125,
2012-07-04, 02:06:04,VALID,997.23,VALID,0,VALID,77.2652,VALID,0,VALID,22.7842,VALID,118,VALID,0.00546875,
2012-07-04, 02:07:04,VALID,997.197,VALID,0,VALID,77.7229,VALID,0,VALID,22.7257,VALID,118,VALID,0.292578,
2012-07-04, 02:08:04,VALID,997.195,VALID,0,VALID,77.9747,VALID,0,VALID,22.6655,VALID,118,VALID,0.0964844,
2012-07-04, 02:09:04,VALID,997.157,VALID,0,VALID,78.2646,VALID,0,VALID,22.6282,VALID,118,VALID,0.170703,
2012-07-04, 02:10:04,VALID,997.154,VALID,0,VALID,78.6614,VALID,0,VALID,22.5892,VALID,118,VALID,0.578906,
2012-07-04, 02:11:04,VALID,997.157,VALID,0,VALID,79.0429,VALID,0,VALID,22.5892,VALID,106,VALID,0.900391,
2012-07-04, 02:12:04,VALID,997.183,VALID,0,VALID,79.5083,VALID,0,VALID,22.5501,VALID,98,VALID,0.497266,
2012-07-04, 02:13:04,VALID,997.167,VALID,0,VALID,79.9203,VALID,0,VALID,22.4916,VALID,95,VALID,0.639063,
2012-07-04, 02:14:04,VALID,997.192,VALID,0,VALID,80.2941,VALID,0,VALID,22.4136,VALID,95,VALID,0.125781,
2012-07-04, 02:15:04,VALID,997.172,VALID,0,VALID,80.7595,VALID,0,VALID,22.3144,VALID,95,VALID,0.285156,
2012-07-04, 02:16:04,VALID,997.184,VALID,0,VALID,81.2249,VALID,0,VALID,22.2559,VALID,95,VALID,0.241016,
2012-07-04, 02:17:04,VALID,997.17,VALID,0,VALID,81.6522,VALID,0,VALID,22.2186,VALID,95,VALID,0.241016,
2012-07-04, 02:18:04,VALID,997.169,VALID,0,VALID,81.9192,VALID,0,VALID,22.1795,VALID,95,VALID,0.228516,
2012-07-04, 02:19:04,VALID,997.15,VALID,0,VALID,82.1634,VALID,0,VALID,22.121,VALID,95,VALID,0.4875,
2012-07-04, 02:20:04,VALID,997.134,VALID,0,VALID,82.3465,VALID,0,VALID,22.0608,VALID,95,VALID,0.596484,
2012-07-04, 02:21:04,VALID,997.159,VALID,0,VALID,82.644,VALID,0,VALID,21.9828,VALID,95,VALID,0.399219,
2012-07-04, 02:22:04,VALID,997.125,VALID,0,VALID,82.8653,VALID,0,VALID,21.9845,VALID,95,VALID,0.385547,
2012-07-04, 02:23:04,VALID,997.123,VALID,0,VALID,82.934,VALID,0,VALID,21.965,VALID,71,VALID,0.344141,
2012-07-04, 02:24:04,VALID,997.124,VALID,0,VALID,82.728,VALID,0,VALID,21.965,VALID,71,VALID,0.291406,
2012-07-04, 02:25:04,VALID,997.118,VALID,0,VALID,82.5983,VALID,0,VALID,21.9845,VALID,71,VALID,0.207031,
2012-07-04, 02:26:04,VALID,997.135,VALID,0,VALID,82.3923,VALID,0,VALID,22.0023,VALID,100,VALID,0.341406,
2012-07-04, 02:27:04,VALID,997.083,VALID,0,VALID,81.5301,VALID,0,VALID,22.1779,VALID,192,VALID,0.555469,
2012-07-04, 02:28:04,VALID,997.072,VALID,0,VALID,79.5312,VALID,0,VALID,22.5306,VALID,220,VALID,1.32695,
2012-07-04, 02:29:04,VALID,997.055,VALID,0,VALID,77.0821,VALID,0,VALID,22.9013,VALID,204,VALID,1.27383,
2012-07-04, 02:30:04,VALID,997.074,VALID,0,VALID,73.6029,VALID,0,VALID,23.5433,VALID,200,VALID,1.71406,
2012-07-04, 02:31:04,VALID,997.063,VALID,0,VALID,70.5435,VALID,0,VALID,24.1677,VALID,199,VALID,2.04531,
2012-07-04, 02:32:04,VALID,997.053,VALID,0,VALID,68.6132,VALID,0,VALID,24.6184,VALID,189,VALID,1.40781,
2012-07-04, 02:33:04,VALID,997.024,VALID,0,VALID,67.0262,VALID,0,VALID,24.8703,VALID,177,VALID,1.74883,
2012-07-04, 02:34:04,VALID,997.07,VALID,0,VALID,65.7978,VALID,0,VALID,25.204,VALID,170,VALID,1.91523,
2012-07-04, 02:35:04,VALID,997.094,VALID,0,VALID,67.5374,VALID,0,VALID,25.165,VALID,128,VALID,1.6793,
2012-07-04, 02:36:04,VALID,997.069,VALID,0,VALID,69.5135,VALID,0,VALID,24.638,VALID,95,VALID,1.68672,
2012-07-04, 02:37:04,VALID,997.071,VALID,0,VALID,71.4361,VALID,0,VALID,24.1891,VALID,99,VALID,1.62305,
2012-07-04, 02:38:04,VALID,997.056,VALID,0,VALID,72.7255,VALID,0,VALID,23.836,VALID,92,VALID,0.99375,
2012-07-04, 02:39:04,VALID,997.045,VALID,0,VALID,74.0378,VALID,0,VALID,23.5841,VALID,91,VALID,0.721094,
2012-07-04, 02:40:04,VALID,997.05,VALID,0,VALID,74.8695,VALID,0,VALID,23.3677,VALID,91,VALID,0.376172,
2012-07-04, 02:41:04,VALID,997.048,VALID,0,VALID,75.4112,VALID,0,VALID,23.2524,VALID,91,VALID,0.154297,
2012-07-04, 02:42:04,VALID,997.051,VALID,0,VALID,75.8155,VALID,0,VALID,23.1549,VALID,91,VALID,0,
2012-07-04, 02:43:04,VALID,997.015,VALID,0,VALID,76.3801,VALID,0,VALID,23.0769,VALID,91,VALID,0.353516,
2012-07-04, 02:44:04,VALID,997.059,VALID,0,VALID,76.8989,VALID,0,VALID,22.9793,VALID,91,VALID,0.551953,
2012-07-04, 02:45:04,VALID,997.038,VALID,0,VALID,77.1583,VALID,0,VALID,22.9013,VALID,249,VALID,0.600781,
2012-07-04, 02:46:04,VALID,997.048,VALID,0,VALID,77.0134,VALID,0,VALID,22.8215,VALID,204,VALID,0.953125,
2012-07-04, 02:47:04,VALID,997.016,VALID,0,VALID,74.5261,VALID,0,VALID,23.2702,VALID,217,VALID,2.27891,
2012-07-04, 02:48:04,VALID,997.028,VALID,0,VALID,71.1233,VALID,0,VALID,24.0116,VALID,215,VALID,1.3125,
2012-07-04, 02:49:04,VALID,997.047,VALID,0,VALID,68.7276,VALID,0,VALID,24.5599,VALID,195,VALID,2.38242,
2012-07-04, 02:50:04,VALID,997.01,VALID,0,VALID,66.9652,VALID,0,VALID,24.9289,VALID,199,VALID,1.78633,
2012-07-04, 02:51:04,VALID,997.057,VALID,0,VALID,65.6987,VALID,0,VALID,25.2021,VALID,196,VALID,2.28437,
2012-07-04, 02:52:04,VALID,997.061,VALID,0,VALID,65.2333,VALID,0.104696,VALID,25.3778,VALID,230,VALID,1.43125,
2012-07-04, 02:53:04,VALID,997.073,VALID,0,VALID,64.8365,VALID,0,VALID,25.4774,VALID,232,VALID,1.48984,
2012-07-04, 02:54:04,VALID,997.062,VALID,0,VALID,64.1956,VALID,0,VALID,25.573,VALID,218,VALID,2.29961,
2012-07-04, 02:55:04,VALID,997.059,VALID,0,VALID,63.6387,VALID,0,VALID,25.6726,VALID,222,VALID,2.84336,
2012-07-04, 02:56:04,VALID,997.068,VALID,0,VALID,63.3564,VALID,0,VALID,25.8093,VALID,206,VALID,1.77617,
2012-07-04, 02:57:04,VALID,997.083,VALID,0,VALID,63.2267,VALID,0,VALID,25.8268,VALID,204,VALID,1.80078,
2012-07-04, 02:58:04,VALID,997.107,VALID,0,VALID,63.0436,VALID,0,VALID,25.8483,VALID,228,VALID,1.79258,
2012-07-04, 02:59:04,VALID,997.095,VALID,0,VALID,62.7841,VALID,0,VALID,25.8874,VALID,221,VALID,1.49453,
2012-07-04, 03:00:04,VALID,997.085,VALID,0,VALID,62.6697,VALID,0,VALID,25.9264,VALID,212,VALID,1.11914,
2012-07-04, 03:01:04,VALID,997.087,VALID,0,VALID,62.746,VALID,0,VALID,25.8854,VALID,220,VALID,1.31719,
2012-07-04, 03:02:04,VALID,997.096,VALID,0,VALID,62.9978,VALID,0,VALID,25.9069,VALID,209,VALID,1.24297,
2012-07-04, 03:03:04,VALID,997.115,VALID,0,VALID,63.0741,VALID,0,VALID,25.8659,VALID,219,VALID,1.14453,
2012-07-04, 03:04:04,VALID,997.141,VALID,0,VALID,63.0512,VALID,0,VALID,25.8268,VALID,210,VALID,1.58359,
2012-07-04, 03:05:04,VALID,997.139,VALID,0,VALID,62.9062,VALID,0,VALID,25.8464,VALID,206,VALID,1.53789,
2012-07-04, 03:06:04,VALID,997.188,VALID,0,VALID,62.9367,VALID,0,VALID,25.9069,VALID,208,VALID,1.73633,
2012-07-04, 03:07:04,VALID,997.18,VALID,0,VALID,62.746,VALID,0,VALID,25.9264,VALID,200,VALID,1.74297,
2012-07-04, 03:08:04,VALID,997.181,VALID,0,VALID,62.601,VALID,0,VALID,25.9655,VALID,233,VALID,2.06211,
2012-07-04, 03:09:04,VALID,997.165,VALID,0,VALID,62.5247,VALID,0,VALID,26.0045,VALID,216,VALID,1.61563,
2012-07-04, 03:10:04,VALID,997.195,VALID,0,VALID,62.7078,VALID,0,VALID,25.9655,VALID,199,VALID,1.3332,
2012-07-04, 03:11:04,VALID,997.195,VALID,0,VALID,62.807,VALID,0,VALID,25.9264,VALID,213,VALID,1.02109,
2012-07-04, 03:12:04,VALID,997.198,VALID,0,VALID,62.7765,VALID,0,VALID,25.944,VALID,224,VALID,1.34023,
2012-07-04, 03:13:04,VALID,997.146,VALID,0,VALID,62.3111,VALID,0,VALID,26.0221,VALID,207,VALID,2.30312,
2012-07-04, 03:14:04,VALID,997.152,VALID,0,VALID,61.9144,VALID,0,VALID,26.0807,VALID,199,VALID,2.40273,
2012-07-04, 03:15:04,VALID,997.138,VALID,0,VALID,61.9296,VALID,0,VALID,26.1217,VALID,218,VALID,1.51172,
2012-07-04, 03:16:04,VALID,997.117,VALID,0,VALID,62.0441,VALID,0,VALID,26.1002,VALID,204,VALID,1.26055,
2012-07-04, 03:17:04,VALID,997.112,VALID,0,VALID,62.1967,VALID,0,VALID,26.0416,VALID,188,VALID,2.33867,
2012-07-04, 03:18:04,VALID,997.108,VALID,0,VALID,64.5008,VALID,0,VALID,25.7507,VALID,113,VALID,1.46211,
2012-07-04, 03:19:04,VALID,997.141,VALID,0,VALID,68.2164,VALID,0,VALID,24.9289,VALID,94,VALID,1.61328,
2012-07-04, 03:20:04,VALID,997.164,VALID,0,VALID,72.0236,VALID,0,VALID,24.0915,VALID,108,VALID,1.76953,
2012-07-04, 03:21:04,VALID,997.152,VALID,0,VALID,75.4493,VALID,0,VALID,23.4085,VALID,105,VALID,2.3957,
2012-07-04, 03:22:04,VALID,997.135,VALID,0,VALID,77.8526,VALID,0,VALID,22.88,VALID,108,VALID,2.13086,
2012-07-04, 03:23:04,VALID,997.122,VALID,0,VALID,79.3252,VALID,0,VALID,22.5679,VALID,107,VALID,1.47344,
2012-07-04, 03:24:04,VALID,997.138,VALID,0,VALID,80.4849,VALID,0,VALID,22.4119,VALID,102,VALID,1.35156,
2012-07-04, 03:25:04,VALID,997.114,VALID,0,VALID,80.935,VALID,0,VALID,22.2754,VALID,105,VALID,1.22031,
2012-07-04, 03:26:04,VALID,997.066,VALID,0,VALID,81.3928,VALID,0,VALID,22.1389,VALID,107,VALID,1.07969,
2012-07-04, 03:27:04,VALID,997.067,VALID,0,VALID,81.9116,VALID,0,VALID,22.082,VALID,107,VALID,0.791406,
2012-07-04, 03:28:04,VALID,997.051,VALID,0,VALID,82.2626,VALID,0,VALID,22.004,VALID,106,VALID,0.908594,
2012-07-04, 03:29:04,VALID,997.037,VALID,0,VALID,82.4533,VALID,0,VALID,21.9455,VALID,112,VALID,0.60625,
2012-07-04, 03:30:04,VALID,997.066,VALID,0,VALID,82.6212,VALID,0,VALID,21.9065,VALID,112,VALID,0.190625,
2012-07-04, 03:31:04,VALID,997.047,VALID,0,VALID,82.934,VALID,0,VALID,21.8675,VALID,209,VALID,0.542969,
2012-07-04, 03:32:04,VALID,997.035,VALID,0,VALID,82.5601,VALID,0,VALID,21.926,VALID,209,VALID,0.248437,
2012-07-04, 03:33:04,VALID,997.055,VALID,0,VALID,82.2626,VALID,0,VALID,21.9438,VALID,209,VALID,0.175391,
2012-07-04, 03:34:04,VALID,997.045,VALID,0,VALID,82.1634,VALID,0,VALID,21.9845,VALID,194,VALID,0.399609,
2012-07-04, 03:35:04,VALID,997.052,VALID,0,VALID,82.1481,VALID,0,VALID,21.9828,VALID,181,VALID,0.0796875,
2012-07-04, 03:36:04,VALID,997.029,VALID,0,VALID,82.1405,VALID,0,VALID,22.004,VALID,181,VALID,0,
2012-07-04, 03:37:04,VALID,997.05,VALID,0,VALID,82.2702,VALID,0,VALID,21.965,VALID,182,VALID,0.521484,
2012-07-04, 03:38:04,VALID,997.068,VALID,0,VALID,82.1557,VALID,0,VALID,21.9845,VALID,208,VALID,0.847656,
2012-07-04, 03:39:04,VALID,997.044,VALID,0,VALID,81.6827,VALID,0,VALID,22.1015,VALID,175,VALID,1.11797,
2012-07-04, 03:40:04,VALID,997.017,VALID,0,VALID,80.9274,VALID,0,VALID,22.2576,VALID,158,VALID,0.900781,
2012-07-04, 03:41:04,VALID,996.999,VALID,0,VALID,80.1644,VALID,0,VALID,22.3746,VALID,141,VALID,1.32383,
2012-07-04, 03:42:04,VALID,997.023,VALID,0,VALID,79.5159,VALID,0,VALID,22.4721,VALID,132,VALID,1.69961,
2012-07-04, 03:43:04,VALID,997.028,VALID,0,VALID,79.4091,VALID,0,VALID,22.5111,VALID,110,VALID,1.31914,
2012-07-04, 03:44:04,VALID,996.979,VALID,0,VALID,80.2941,VALID,0,VALID,22.4136,VALID,114,VALID,1.64063,
2012-07-04, 03:45:04,VALID,996.984,VALID,0,VALID,80.6909,VALID,0,VALID,22.3356,VALID,121,VALID,0.807813,